Regional Weather Roundup
Issued by NWS

Home | Current Version | Previous Version | Graphics & Text | Print | Product List | Glossary On
Versions: 1 2 3 4 5 6 7 8 9 10 11 12 13 14 15 16 17 18 19 20 21 22 23 24 25 26 27 28 29 30 31 32 33 34 35 36 37 38 39 40 41 42 43 44 45 46 47 48 49 50
000
ASUS45 KSLC 230710
RWRUT

UTAH REGIONAL WEATHER ROUNDUP
NATIONAL WEATHER SERVICE SALT LAKE CITY UT
100 AM MDT SAT MAY 23 2015

UTZ001>011-023>025-230800-

NORTHERN UTAH

CITY           SKY/WX    TMP DP  RH WIND       PRES   REMARKS
BRIGHAM CITY   CLOUDY    51  47  84 NE6       29.95R
HILL AFB       CLOUDY    51  43  73 SE10      29.92R
LOGAN          LGT RAIN  51  47  86 NW6       29.93R
OGDEN          CLOUDY    53  44  71 S3        29.90S
PROVO AIRPORT  CLOUDY    52  43  71 S7        29.94R
SALT LAKE CITY CLOUDY    55  43  63 S7        29.90R
VERNAL         CLOUDY    49  43  80 MISG      29.99F
WENDOVER       CLOUDY    55  46  71 SW3       29.90R
HEBER CITY     MIX PCPN  45  41  87 CALM      29.97R
WEST JORDAN    CLOUDY    52  45  76 S3        29.92S

$$

UTZ012>022-026-027-230800-

SOUTHERN/CENTRAL UTAH

CITY           SKY/WX    TMP DP  RH WIND       PRES   REMARKS
BLANDING       CLEAR     47  30  50 SW6       30.08R
BRYCE CANYON   CLOUDY    37  34  89 W7        30.01R WCI  32
CEDAR CITY     LGT RAIN  43  41  93 SW6       29.98R
DELTA          CLOUDY    45  40  83 CALM      29.95S
HANKSVILLE     PTCLDY    52  36  54 NW5       29.93F
MILFORD        MOCLDY    45  40  82 SW9       29.96R
MOAB/CYNLANDS  PTCLDY    54  41  61 SE3       29.92S
PRICE          CLOUDY    48  39  71 NW5       29.96F
ST GEORGE      CLOUDY    55  39  54 E9        29.97S
KANAB          CLOUDY    43  41  93 SW3       30.04S

$$

REGIONAL REPORTS     COLORADO/ARIZONA

CITY           SKY/WX    TMP DP  RH WIND       PRES   REMARKS
CRAIG, CO      CLOUDY    44  39  82 SE6       30.04R
GRAND JUNCTION CLOUDY    49  46  90 CALM      29.96S
RIFLE          MOCLDY    46  42  86 SE5       30.02S
MONTROSE       MOCLDY    52  36  54 S10G21    30.02R
CORTEZ         CLOUDY    50  33  52 N3        30.02S
PAGE, AZ       MOCLDY    51  38  60 NW8       29.97R
GRAND CANYON   CLEAR     31  30  96 CALM      30.05R
KINGMAN        PTCLDY    49  40  71 SE10      29.98R
FLAGSTAFF      MOCLDY    38  33  82 W6        30.06R WCI  33

$$

REGIONAL REPORTS    NEVADA/IDAHO/WYOMING

CITY           SKY/WX    TMP DP  RH WIND       PRES   REMARKS
LAS VEGAS, NV  PTCLDY    63  41  44 S9        29.86S
ELY            CLOUDY    43  40  89 SE6       29.99S
ELKO           CLOUDY    48  43  82 S7        29.96S
POCATELLO, ID  MOCLDY    55  48  77 S5        29.90S
BURLEY         PTCLDY    47  45  93 S5        29.88S
EVANSTON, WY   CLOUDY    40  37  89 E3        30.00S
ROCK SPRINGS   CLOUDY    40  37  89 SW6       30.01S
KEMMERER       CLOUDY    41  39  93 CALM      30.01R

$$



USA.gov is the U.S. government's official web portal to all federal, state and local government web resources and services.